sat.trackr.live / text

‹ back to catalog

STARLINK-35916

NORAD 66504 · 2025-263V

PAYLOAD ACTIVE UNKNOWN

§ Identity

Operator
Country
US
Launch date
2025-11-15
Launch site
AFETR
Launch vehicle
Mass (kg)
RCS (m²)

Purposes: comms

External: N2YO · Heavens-Above · Gunter

§ Orbital elements

Epoch: 2026-05-25T02:32:40.614432Z

Period
94.27 min
Inclination
42.9994°
Eccentricity
0.0001394
Mean motion
15.27586310 rev/d
Perigee alt
482.1 km
Apogee alt
484.0 km
Semi-major
6,861.2 km
B*
2.9345e-4
RAAN
282.8167°
Arg perigee
265.2516°
Mean anomaly
94.8177°
Rev number
3,054

§ Raw data

STARLINK-359161 66504U 25263V   26145.10602563  .00007823  00000+0  29345-3 0  99952 66504  42.9994 282.8167 0001394 265.2516  94.8177 15.27586310 30544

JSON: /api/v1/satellites/66504 · /tle

For live sub-satellite position, see the globe view (requires WebGL).

§ Visibility from observer

Set your observer location to see the next 7 days of passes ≥ 10°. The values pass through the URL so the page stays shareable.

No JS? Fill the form by hand. The geolocation button needs JavaScript.